User: anonymous   Login
Location: Theydon Bois
(51.6750°N, 0.1050°E)
Time: 17:14:10
(UTC+01:00)
Language:

Cosmos 1328 - Orbit

View from above orbital plane
View from above orbital plane
View from above satellite
View from above satellite

Ground track
Ground track

The orbit data is extracted from the following two-line orbital elements,

1 12987U 81117A   17291.89787232 +.00000096 +00000-0 +43855-5 0  9996
2 12987 082.5142 120.2342 0012562 188.6747 171.4266 15.07482030950856
Epoch (UTC): 18 October 2017 21:32:56
Eccentricity: 0.0012562
inclination: 82.5142°
perigee height: 535 km
apogee height: 552 km
right ascension of ascending node: 120.2342°
argument of perigee: 188.6747°
revolutions per day: 15.07482030
mean anomaly at epoch: 171.4266°
orbit number at epoch: 95085

The dashed part of the orbit path shows where the satellite is in the earth's shadow,  

DLR